TimeCST,TemperatureF,Dew PointF,Humidity,Sea Level PressureIn,VisibilityMPH,Wind Direction,Wind SpeedMPH,Gust SpeedMPH,PrecipitationIn,Events,Conditions,WindDirDegrees,DateUTC
12:52 AM,68.0,57.0,68,29.75,10.0,South,16.1,25.3,N/A,,Clear,180,2012-11-10 06:52:00
1:52 AM,68.0,55.9,65,29.74,10.0,South,19.6,28.8,N/A,,Clear,180,2012-11-10 07:52:00
2:52 AM,68.0,55.9,65,29.75,10.0,South,17.3,26.5,N/A,,Clear,180,2012-11-10 08:52:00
3:52 AM,68.0,55.9,65,29.73,10.0,South,18.4,25.3,N/A,,Clear,180,2012-11-10 09:52:00
4:52 AM,68.0,55.0,63,29.74,10.0,South,17.3,25.3,N/A,,Clear,180,2012-11-10 10:52:00
6:52 AM,66.9,54.0,63,29.75,10.0,South,19.6,27.6,N/A,,Clear,180,2012-11-10 12:52:00
7:52 AM,66.9,54.0,63,29.77,10.0,South,24.2,33.4,N/A,,Clear,190,2012-11-10 13:52:00
8:52 AM,69.1,55.0,61,29.77,10.0,South,26.5,35.7,N/A,,Clear,190,2012-11-10 14:52:00
9:52 AM,70.0,55.0,59,29.76,10.0,South,18.4,34.5,N/A,,Clear,180,2012-11-10 15:52:00
10:52 AM,72.0,55.9,57,29.75,10.0,South,24.2,32.2,N/A,,Partly Cloudy,190,2012-11-10 16:52:00
11:52 AM,73.0,57.0,57,29.73,10.0,South,26.5,38.0,N/A,,Clear,180,2012-11-10 17:52:00
12:52 PM,73.9,55.9,53,29.70,10.0,South,19.6,39.1,N/A,,Partly Cloudy,180,2012-11-10 18:52:00
1:52 PM,75.0,55.9,51,29.68,10.0,South,28.8,39.1,N/A,,Partly Cloudy,180,2012-11-10 19:52:00
2:52 PM,73.9,55.9,53,29.68,10.0,South,27.6,36.8,N/A,,Overcast,190,2012-11-10 20:52:00
3:52 PM,73.9,55.0,52,29.67,10.0,South,21.9,27.6,N/A,,Mostly Cloudy,180,2012-11-10 21:52:00
4:52 PM,73.0,54.0,51,29.67,10.0,South,21.9,32.2,N/A,,Mostly Cloudy,180,2012-11-10 22:52:00
5:52 PM,72.0,52.0,49,29.68,10.0,South,15.0,23.0,N/A,,Clear,180,2012-11-10 23:52:00
6:52 PM,72.0,52.0,49,29.68,10.0,South,19.6,27.6,0.00,,Clear,180,2012-11-11 00:52:00
7:52 PM,70.0,52.0,53,29.68,10.0,South,15.0,25.3,N/A,,Clear,170,2012-11-11 01:52:00
8:52 PM,70.0,51.1,51,29.68,10.0,South,18.4,27.6,N/A,,Clear,180,2012-11-11 02:52:00
9:52 PM,69.1,52.0,54,29.67,10.0,South,19.6,32.2,N/A,,Clear,170,2012-11-11 03:52:00
11:52 PM,70.0,54.0,57,29.69,10.0,South,17.3,28.8,N/A,,Overcast,190,2012-11-11 05:52:00